Satellite: IDEFIX/ARIANE 
Catalog number: 27422
Epoch time:      103001.95480959
Element set:     225 
Inclination:       98.7034 deg
RA of node:        81.3597 deg
Eccentricity:    0.0011753
Arg of perigee:   290.0078 deg
Mean anomaly:      69.9835 deg
Mean motion:   14.27942292 rev/day
Decay rate:    3.4100E-006 rev/day^2
Epoch rev:            3466
Checksum:              315

Satellite: NOAA 17
Catalog number: 27453
Epoch time:      103001.97253428
Element set:     255 
Inclination:       98.7637 deg
RA of node:        73.4166 deg
Eccentricity:    0.0012372
Arg of perigee:   131.9143 deg
Mean anomaly:     228.3092 deg
Mean motion:   14.23262562 rev/day
Decay rate:    3.7100E-006 rev/day^2
Epoch rev:            2719
Checksum:              292

Satellite: HOT BIRD 6
Catalog number: 27499
Epoch time:      102364.09542247
Element set:     64 
Inclination:        0.0040 deg
RA of node:         8.7196 deg
Eccentricity:    0.0011180
Arg of perigee:   225.2390 deg
Mean anomaly:     271.8102 deg
Mean motion:    1.00272778 rev/day
Decay rate:    9.5000E-007 rev/day^2
Epoch rev:             132
Checksum:              254

Satellite: RUBIN-2
Catalog number: 27605
Epoch time:      103001.93487314
Element set:     20 
Inclination:       64.5589 deg
RA of node:       341.8815 deg
Eccentricity:    0.0031693
Arg of perigee:   131.2492 deg
Mean anomaly:     229.1313 deg
Mean motion:   14.71352613 rev/day
Decay rate:    9.4400E-006 rev/day^2
Epoch rev:             180
Checksum:              274


Read previous mail | Read next mail


 15.03.2026 19:10:45lGo back Go up